{"data":{"norad_id":61195,"intl_designator":"2024-170A","name":"TIANQI-29","alt_names":[],"object_type":"PAYLOAD","status":"ACTIVE","operator":null,"country":"PRC","launch_date":"2024-09-20","launch_site_code":"XICLF","launch_vehicle":null,"mission":null,"orbit_class":"UNKNOWN","rcs_meters":null,"size_class":null,"mass_kg":null,"dimensions":null,"purposes":[],"wikipedia_slug":null,"has_3d_model":false,"image_url":null,"decayed_at":null,"tle_current":{"epoch":"2026-09-22T18:00:35.030880Z","epoch_age_seconds":100295,"freshness":"FRESH","line1":"1 61195U 24170A   26265.75040545 -.00000020  00000+0  75334-4 0  9995","line2":"2 61195  44.8570  62.6379 0006862 197.3669 162.6928 13.97727461102518","mean_motion":13.97727461,"eccentricity":0.0006862,"inclination_deg":44.857,"raan_deg":62.6379,"arg_perigee_deg":197.3669,"mean_anomaly_deg":162.6928,"bstar":7.5334e-5,"rev_number":10251,"period_min":103.0243763666,"perigee_km":896.67979836374,"apogee_km":906.67061263457,"semimajor_km":7279.8122054992,"source":"CELESTRAK","updated_at":"2026-09-23T09:00:20.813930Z"}}}